Back to catalog

ARIANE 40 R/B

AliveSSO
NORAD 21610·ROCKET BODY·🇫🇷 France

Launched Jul 17, 1991 from Guiana Space Centre

Loading…

Next Passes (next 24 hours)

TLE

FreshSource: Space-Track

Epoch: Sep 14, 2026, 13:39 UTC

1 21610U 91050F   26257.56896142  .00000177  00000-0  65324-4 0  9997
2 21610  98.1795 302.4695 0002539 197.1921 162.9184 14.43000257846239

Track ARIANE 40 R/B in real time with AllMySat

Download on the App Store